Temperature
4 4 4 4 4 4 4 4 4 4 4 5 5 5 5 5 5 5 5 5 6 6 6 6 6 6 6 6 6 6 6 6 5 6 6 6 6 6 6 6 6 6 6
3 3 3 3 4 4 4 4 4 4 4 4 4 4 4 5 5 5 5 5 5 5 5 5 5 5 5 5 5 5 5 5 5 5 5 5 6 6 6 5 6 6 5
3 3 3 3 3 3 3 3 3 4 4 4 4 4 4 4 4 4 4 4 4 4 4 4 4 4 4 4 4 4 4 4 4 4 4 5 5 5 5 5 5 5 5
3 3 3 3 3 3 3 3 3 3 3 3 3 3 3 3 3 3 4 3 3 3 3 4 4 4 4 4 4 4 4 4 4 4 4 4 4 4 4 4 4 4 4
3 3 3 3 3 3 3 3 3 3 3 3 3 3 2 3 2 2 3 3 3 3 3 3 3 3 3 3 3 3 3 3 3 3 3 3 3 3 3 3 3 3 3
2 2 2 2 2 2 2 2 2 2 2 2 2 2 2 2 2 2 2 2 2 2 2 3 2 2 3 2 2 2 2 2 2 2 2 2 2 2 2 2 2 2 2
2 2 2 2 2 2 2 2 2 2 2 2 2 2 2 2 2 1 1 2 2 2 2 2 2 2 2 2 2 2 2 1 1 1 1 1 1 1 1 1 1 1 1
2 2 2 2 2 2 2 1 1 1 1 1 1 1 1 1 1 1 1 1 1 1 1 1 1 1 1 1 1 1 1 1 1 1 1 1 1 1 1 1 1 1 1
2 2 1 1 1 1 1 1 1 1 1 1 1 1 1 1 1 1 0 1 1 1 1 1 1 1 1 1 1 1 1 1 0 0 0 0 0 0 0 0 0 -0 0
2 1 1 1 1 1 1 1 1 0 0 0 0 -0 -0 0 0 0 -0 -0 0 0 0 0 0 0 0 0 0 0 0 0 0 0 0 0 0 0 -0 -0 -1 -1 -1
1 1 1 1 1 0 0 0 -0 -0 -0 -0 -0 -1 -1 -1 -1 -1 -1 -1 -1 -0 -0 -0 -0 -0 -0 -0 -0 -0 -0 -1 -0 -0 -0 -0 -0 -0 -0 -1 -1 -1 -1
1 1 1 1 0 0 -0 -0 -0 -1 -1 -1 -1 -1 -1 -1 -1 -1 -1 -1 -1 -1 -1 -1 -1 -1 -1 -1 -1 -1 -1 -1 -1 -1 -1 -1 -1 -1 -1 -1 -1 -1 -1
1 1 1 0 0 -0 -0 -0 -1 -1 -1 -1 -1 -1 -1 -2 -2 -2 -2 -2 -2 -2 -1 -1 -1 -1 -1 -1 -1 -1 -1 -1 -1 -1 -2 -2 -2 -1 -1 -1 -1 -1 -1
1 1 1 0 0 -0 -1 -1 -1 -1 -2 -2 -2 -2 -2 -2 -2 -2 -2 -2 -2 -2 -2 -2 -2 -2 -2 -2 -1 -2 -2 -2 -2 -2 -2 -2 -2 -2 -2 -2 -2 -2 -1
1 0 0 -0 -0 -0 -1 -1 -1 -2 -2 -3 -3 -3 -3 -3 -3 -3 -3 -3 -3 -3 -3 -2 -2 -2 -2 -2 -2 -2 -2 -2 -3 -3 -3 -3 -3 -3 -3 -2 -2 -2 -2
0 0 -0 -1 -1 -1 -1 -1 -2 -2 -2 -3 -3 -3 -3 -3 -4 -3 -3 -3 -3 -3 -3 -3 -3 -3 -3 -3 -3 -3 -3 -3 -3 -3 -3 -3 -3 -3 -3 -3 -3 -3 -3
0 -0 -1 -1 -1 -1 -2 -2 -2 -2 -2 -3 -3 -3 -3 -4 -4 -4 -3 -4 -4 -4 -4 -4 -4 -4 -4 -4 -4 -4 -3 -3 -4 -4 -3 -3 -4 -4 -3 -3 -3 -3 -3
-0 -1 -1 -1 -2 -2 -2 -2 -2 -3 -3 -3 -3 -3 -4 -4 -4 -4 -4 -4 -4 -4 -4 -4 -4 -4 -4 -4 -4 -4 -4 -4 -4 -4 -4 -4 -4 -4 -4 -4 -4 -4 -4
-1 -1 -1 -2 -2 -2 -2 -3 -3 -3 -3 -3 -3 -3 -4 -4 -4 -4 -4 -4 -4 -4 -5 -5 -5 -5 -5 -4 -4 -4 -4 -4 -4 -4 -4 -4 -4 -4 -4 -4 -4 -4 -4
-1 -2 -2 -2 -2 -2 -3 -3 -3 -3 -4 -4 -4 -4 -4 -4 -4 -4 -5 -5 -5 -5 -5 -5 -5 -5 -5 -5 -5 -4 -4 -4 -4 -4 -4 -4 -4 -4 -4 -4 -4 -4 -4
-2 -2 -2 -3 -3 -3 -3 -3 -3 -4 -4 -4 -4 -4 -5 -5 -5 -5 -5 -5 -5 -5 -5 -5 -5 -5 -5 -5 -5 -5 -5 -5 -5 -5 -5 -5 -5 -5 -4 -4 -4 -4 -4
-2 -2 -3 -3 -3 -3 -4 -4 -4 -4 -4 -4 -4 -5 -5 -5 -5 -5 -5 -5 -5 -6 -6 -6 -6 -5 -5 -5 -5 -5 -5 -5 -5 -5 -5 -5 -5 -5 -5 -5 -5 -4 -5
-3 -3 -3 -3 -4 -4 -4 -4 -4 -4 -5 -5 -5 -5 -5 -5 -5 -6 -6 -6 -6 -6 -6 -6 -6 -6 -6 -6 -6 -6 -5 -5 -5 -5 -5 -5 -5 -5 -5 -5 -5 -5 -5
-3 -3 -3 -4 -4 -4 -5 -5 -5 -5 -5 -5 -5 -6 -6 -6 -6 -6 -6 -6 -6 -6 -6 -6 -6 -6 -6 -6 -6 -6 -6 -6 -6 -6 -5 -5 -5 -5 -5 -5 -5 -5 -5
-3 -3 -4 -4 -4 -5 -5 -5 -5 -5 -5 -6 -6 -6 -6 -6 -6 -6 -6 -6 -6 -6 -6 -6 -6 -6 -6 -6 -6 -6 -6 -6 -6 -6 -6 -6 -6 -6 -6 -6 -6 -6 -6
-4 -4 -4 -4 -5 -5 -5 -5 -5 -6 -6 -6 -6 -6 -6 -6 -6 -6 -6 -6 -6 -6 -6 -6 -6 -6 -6 -6 -6 -6 -6 -6 -6 -6 -6 -6 -6 -6 -6 -6 -6 -6 -6
Wind_Speed
5 5 4 4 3 3 2 2 2 3 3 3 2 2 2 2 2 2 2 3 2 3 3 3 3 2 2 2 3 3 4 4 7 6 4 4 5 5 5 6 8 9 10
5 5 4 4 4 4 3 3 3 2 2 2 2 1 1 1 2 2 2 3 3 3 3 3 3 3 3 3 3 4 4 4 5 7 5 4 6 6 6 6 6 7 9
5 5 4 4 4 4 4 3 3 2 3 2 2 1 1 2 2 2 2 2 3 4 4 4 4 3 4 3 4 4 3 4 4 5 6 5 5 5 5 5 6 6 7
5 5 5 4 4 4 4 3 3 3 3 3 2 2 2 2 2 2 2 2 2 2 2 3 4 5 5 4 4 4 3 3 3 4 5 5 5 4 4 5 6 5 7
5 5 5 4 4 4 4 4 3 3 3 3 3 2 2 2 1 1 1 1 1 1 1 2 3 3 4 3 3 3 3 4 4 4 4 5 5 4 4 4 7 7 7
4 5 5 5 5 4 4 4 4 4 4 4 4 3 3 3 4 3 1 0 0 1 1 2 3 2 2 3 4 5 4 5 5 5 5 6 6 5 5 5 6 6 7
4 5 5 5 5 5 4 4 4 4 3 4 4 3 3 4 5 4 3 1 1 2 2 2 3 3 3 4 4 5 6 7 8 7 7 7 7 7 6 6 6 7 8
3 4 5 5 5 5 4 4 4 3 3 3 4 4 3 4 4 3 4 2 1 2 3 3 4 4 4 4 3 4 5 6 7 6 6 7 7 6 7 7 8 8 7
3 4 4 4 4 5 5 4 3 3 3 4 4 4 3 4 4 4 4 1 2 3 3 3 3 4 5 5 3 4 5 6 6 7 8 8 8 8 7 5 5 5 7
4 4 4 3 4 4 4 4 4 3 3 4 4 4 4 4 5 5 5 1 2 2 3 3 4 5 5 5 4 4 6 6 5 5 6 6 5 6 7 6 6 6 6
4 3 3 3 3 3 4 4 4 4 4 4 4 4 4 4 5 6 6 2 2 3 3 3 3 5 5 5 4 4 6 5 4 4 4 4 4 4 4 5 5 5 6
3 3 3 3 3 2 3 3 3 3 3 4 4 4 4 4 5 6 7 6 5 3 4 4 4 5 5 5 4 4 5 4 3 4 4 4 4 4 5 5 6 6 7
2 3 3 3 2 2 2 3 3 3 3 3 3 4 4 4 5 8 8 8 8 5 4 5 5 4 4 3 4 4 3 3 3 3 4 4 4 5 4 4 5 5 5
3 3 3 2 2 3 2 2 2 2 3 3 4 4 5 5 5 5 5 5 6 5 4 4 5 4 3 3 3 3 2 3 3 4 4 4 4 3 3 4 4 4 4
4 4 3 3 3 3 3 3 3 3 4 4 3 3 4 5 6 9 7 5 4 4 4 2 3 3 3 3 3 2 3 3 3 3 4 4 4 4 4 3 3 3 4
4 4 3 3 3 3 3 4 5 5 7 7 6 6 5 7 9 10 9 9 8 6 4 3 3 3 3 3 3 4 3 3 3 3 4 4 4 4 4 4 3 3 4
5 4 3 3 3 3 3 3 5 6 6 7 7 8 8 8 9 9 8 7 5 4 3 3 3 4 4 4 4 4 4 4 3 3 3 4 4 4 4 4 3 3 4
5 5 5 4 4 4 4 4 4 4 5 5 6 8 8 8 8 8 7 4 3 3 3 3 4 4 4 4 4 4 4 4 3 3 3 3 4 4 4 4 3 3 3
5 4 4 4 4 4 4 4 4 5 5 5 5 5 7 7 7 6 4 2 3 3 4 4 4 4 4 4 4 4 4 4 4 3 4 4 3 3 4 4 4 4 3
5 7 5 4 4 4 4 4 4 5 5 5 5 5 4 4 3 4 3 3 3 4 4 4 4 4 4 4 4 4 4 3 3 3 3 3 3 3 4 4 3 3 2
4 5 6 5 4 4 4 5 5 5 5 5 5 6 7 4 4 4 4 4 4 4 4 4 4 4 4 4 4 4 4 4 4 4 3 3 3 3 3 3 3 2 2
4 4 4 5 4 5 5 5 5 5 6 6 5 6 9 5 4 4 4 4 4 4 4 4 4 4 4 4 4 4 4 4 4 4 3 3 3 3 2 2 2 2 1
4 4 4 5 5 7 6 5 5 5 6 5 5 5 5 4 4 5 5 4 4 3 3 3 4 4 4 4 4 4 4 5 4 4 3 3 2 2 2 2 2 1 1
4 5 5 5 5 5 5 5 5 6 6 5 5 5 5 5 5 5 5 4 4 4 4 4 4 5 5 5 5 5 6 6 6 4 4 3 2 2 2 1 1 1 1
4 5 5 5 5 5 6 6 6 6 6 6 5 5 5 5 5 5 4 4 4 4 4 5 4 5 5 6 7 7 7 7 5 4 3 2 2 2 2 1 1 1 1
5 5 5 5 5 6 6 6 6 6 6 6 5 5 5 5 5 4 4 4 4 4 4 4 5 6 7 6 7 7 7 6 5 4 2 2 2 2 1 1 1 1 1
Wind_Direction
342 341 341 333 332 340 339 325 311 314 319 308 295 288 286 287 281 256 257 247 232 243 237 220 219 209 209 226 229 234 241 243 258 269 267 268 258 262 272 273 275 270 267
339 347 355 355 356 358 345 334 333 333 323 314 316 322 315 294 271 260 275 271 250 244 241 224 225 221 217 226 227 236 243 246 253 268 276 268 259 253 252 262 275 280 272
346 355 1 0 359 352 348 346 348 346 344 342 339 319 299 293 289 262 258 268 257 240 232 224 225 218 228 236 235 238 247 259 256 258 268 270 266 260 261 268 270 270 279
350 358 2 355 350 348 347 346 347 347 342 342 343 333 319 301 291 276 247 249 256 254 239 234 234 228 228 228 233 235 243 253 260 265 273 273 266 260 254 264 276 270 272
355 359 355 350 352 357 355 351 354 357 353 354 358 352 342 327 310 307 241 231 233 265 270 255 248 251 256 252 255 248 245 248 257 262 272 281 277 271 266 268 277 285 274
357 354 351 355 355 357 357 360 6 3 359 6 1 349 350 343 352 354 1 124 257 259 279 290 275 251 270 283 282 281 273 255 252 256 264 271 279 280 278 279 282 285 278
353 352 351 353 353 351 358 9 4 355 358 355 347 346 347 342 346 353 354 348 312 272 262 265 276 272 266 252 273 288 282 278 267 259 261 264 269 272 272 274 272 273 273
342 345 346 349 349 352 2 1 350 346 350 346 342 341 337 333 344 348 350 346 309 285 276 262 255 263 263 267 260 275 274 274 272 261 254 259 262 267 263 261 270 277 277
329 328 332 340 344 350 354 349 346 352 357 353 348 348 339 331 338 340 346 313 296 289 281 279 270 262 279 289 273 272 281 279 283 281 279 280 281 280 281 273 272 277 281
300 306 316 332 339 340 338 340 344 352 352 350 350 344 336 327 336 342 338 307 300 299 296 290 285 282 287 291 264 259 268 278 284 288 287 292 279 270 274 258 252 259 275
286 299 311 322 328 330 336 337 339 345 347 347 343 338 335 332 335 338 338 329 308 304 302 301 293 301 296 295 286 267 273 286 276 275 282 285 282 275 266 264 260 253 260
277 284 299 309 315 328 334 333 333 337 340 335 333 331 332 330 333 332 334 330 321 302 297 301 302 306 300 300 298 306 311 303 281 277 279 278 284 286 283 278 276 271 259
260 266 280 301 314 314 313 319 326 328 323 316 317 322 326 328 331 334 335 332 326 316 302 307 312 312 309 298 305 319 322 301 291 287 283 285 285 282 285 291 291 288 285
250 262 265 274 295 305 299 294 300 298 300 307 312 315 319 322 323 326 325 323 324 318 307 306 314 316 319 321 318 307 300 294 296 291 297 296 299 299 297 302 300 303 302
249 260 266 263 269 285 294 282 278 269 274 283 284 292 299 302 306 316 321 318 317 311 316 319 320 317 318 315 313 307 302 303 300 300 301 304 304 302 302 307 302 301 296
244 254 259 268 270 272 288 305 297 291 296 293 290 290 290 295 306 310 313 319 323 323 327 310 309 303 291 291 294 298 293 297 299 297 298 297 298 298 302 307 302 298 300
237 245 249 253 260 264 272 283 302 311 306 300 296 296 298 303 307 310 313 315 320 329 326 304 298 297 292 285 281 281 282 285 285 286 288 290 293 296 298 298 301 303 304
241 244 244 243 249 254 257 262 268 285 301 302 297 294 298 303 306 310 314 321 322 323 306 292 287 286 287 283 281 282 282 285 286 288 290 289 291 294 296 294 289 297 302
242 245 245 246 250 255 260 261 263 269 278 289 298 299 295 299 300 302 311 315 299 297 296 291 289 285 282 281 281 282 280 279 283 285 284 287 289 293 293 289 288 301 310
246 251 250 249 251 257 259 261 265 269 272 278 282 286 296 301 299 298 294 293 287 286 287 287 289 289 286 282 282 278 278 280 279 276 279 281 285 286 287 287 285 293 302
249 252 251 251 249 253 257 257 261 265 268 272 275 279 285 280 275 276 278 279 278 280 284 286 286 288 285 283 281 280 276 274 273 273 275 277 280 287 288 288 292 296 312
247 251 248 248 250 254 259 258 260 262 265 269 279 282 283 280 270 269 270 274 275 277 280 282 283 280 275 275 277 280 279 277 273 272 274 278 277 282 289 291 300 311 309
243 249 252 251 251 259 264 260 259 261 264 267 273 277 276 272 272 270 271 276 279 282 284 283 285 286 285 280 273 269 269 270 269 266 265 264 268 272 278 289 296 302 299
238 243 248 252 252 253 256 260 261 264 266 268 270 270 271 271 272 273 272 274 278 281 285 285 282 283 290 294 286 276 272 273 268 257 250 249 254 260 262 267 278 265 245
239 242 245 248 250 252 256 259 261 264 267 268 268 271 272 272 272 273 274 274 275 280 285 288 287 283 284 290 293 287 286 291 290 280 241 229 237 244 244 239 244 248 221
241 245 247 247 248 249 252 256 258 261 263 266 267 267 269 270 270 269 271 273 276 280 283 286 288 287 287 286 292 295 298 297 295 294 257 201 214 226 233 224 224 213 180
Height
1448 1445 1442 1441 1439 1438 1437 1437 1437 1437 1437 1436 1436 1436 1436 1436 1435 1436 1436 1437 1437 1439 1440 1441 1442 1443 1445 1446 1448 1449 1449 1449 1447 1446 1448 1448 1448 1447 1447 1446 1446 1445 1444
1447 1444 1442 1440 1438 1437 1436 1435 1435 1435 1434 1434 1433 1433 1432 1432 1431 1431 1432 1432 1432 1433 1434 1436 1436 1438 1439 1441 1441 1442 1442 1443 1442 1440 1440 1441 1440 1440 1439 1439 1438 1437 1436
1447 1444 1441 1439 1437 1436 1434 1434 1433 1433 1431 1431 1430 1429 1428 1428 1427 1427 1427 1427 1428 1428 1429 1430 1431 1433 1433 1434 1435 1436 1436 1437 1436 1435 1433 1434 1433 1433 1432 1431 1431 1430 1429
1446 1443 1441 1439 1437 1435 1434 1432 1431 1430 1429 1428 1426 1425 1425 1424 1424 1423 1423 1423 1424 1424 1424 1425 1426 1427 1428 1429 1429 1430 1430 1430 1430 1429 1428 1427 1427 1426 1425 1424 1422 1421 1421
1445 1442 1440 1438 1436 1434 1432 1431 1429 1428 1427 1425 1423 1422 1422 1421 1420 1420 1420 1419 1419 1419 1420 1421 1422 1422 1423 1424 1424 1424 1424 1424 1424 1423 1422 1421 1420 1419 1418 1417 1416 1414 1413
1444 1441 1439 1437 1435 1433 1431 1429 1428 1426 1425 1423 1421 1420 1419 1418 1418 1417 1417 1416 1416 1416 1416 1416 1417 1418 1418 1419 1419 1419 1419 1419 1418 1417 1416 1415 1414 1413 1412 1411 1410 1408 1405
1444 1441 1438 1436 1434 1431 1429 1428 1426 1425 1423 1421 1420 1418 1417 1416 1415 1415 1414 1414 1413 1413 1413 1412 1413 1413 1413 1414 1414 1414 1414 1414 1414 1413 1411 1409 1408 1408 1407 1405 1404 1403 1400
1443 1440 1438 1435 1433 1431 1428 1427 1425 1423 1421 1419 1418 1416 1415 1414 1413 1413 1412 1411 1410 1410 1409 1409 1409 1408 1409 1409 1408 1408 1408 1408 1407 1407 1405 1403 1402 1402 1402 1401 1399 1397 1395
1442 1440 1437 1435 1433 1430 1428 1426 1424 1422 1420 1418 1416 1415 1413 1412 1411 1410 1409 1408 1407 1406 1406 1405 1405 1404 1404 1404 1404 1403 1402 1402 1402 1401 1400 1398 1397 1397 1396 1395 1392 1391 1387
1441 1439 1437 1435 1432 1430 1427 1425 1423 1421 1419 1417 1415 1414 1412 1410 1409 1408 1407 1405 1404 1403 1402 1401 1400 1399 1399 1399 1398 1397 1396 1395 1395 1394 1393 1391 1390 1389 1389 1388 1386 1385 1382
1440 1438 1436 1434 1432 1429 1427 1425 1422 1420 1418 1416 1414 1412 1411 1409 1407 1406 1404 1403 1401 1399 1397 1396 1395 1394 1394 1394 1393 1393 1391 1391 1389 1388 1386 1385 1384 1382 1382 1381 1380 1379 1377
1439 1437 1435 1433 1431 1429 1427 1424 1422 1420 1417 1415 1412 1410 1409 1407 1405 1403 1402 1400 1398 1396 1394 1392 1391 1390 1390 1389 1389 1388 1387 1387 1385 1383 1381 1379 1377 1376 1375 1374 1374 1373 1372
1436 1434 1433 1431 1429 1427 1425 1423 1421 1418 1416 1413 1411 1409 1407 1405 1403 1401 1399 1397 1395 1393 1391 1390 1388 1387 1386 1385 1385 1384 1383 1382 1380 1379 1376 1374 1373 1371 1370 1369 1367 1367 1366
1434 1432 1430 1428 1427 1425 1423 1421 1419 1417 1414 1412 1410 1407 1405 1403 1401 1398 1396 1394 1392 1390 1388 1387 1385 1384 1383 1382 1380 1379 1378 1377 1376 1374 1372 1370 1369 1367 1365 1363 1362 1361 1359
1430 1429 1427 1425 1424 1422 1420 1419 1417 1415 1413 1411 1409 1406 1404 1401 1399 1397 1394 1392 1390 1388 1386 1384 1382 1380 1379 1378 1376 1375 1374 1373 1371 1370 1368 1366 1364 1362 1361 1359 1357 1356 1355
1426 1425 1424 1422 1420 1419 1417 1415 1414 1412 1410 1408 1406 1405 1402 1400 1397 1394 1392 1389 1387 1385 1383 1381 1379 1377 1376 1374 1373 1371 1370 1369 1367 1366 1364 1363 1361 1359 1357 1355 1354 1353 1351
1422 1421 1420 1418 1417 1415 1414 1412 1410 1408 1407 1405 1403 1401 1399 1396 1394 1391 1389 1386 1384 1382 1380 1378 1376 1374 1373 1371 1370 1368 1367 1365 1364 1363 1361 1359 1358 1356 1354 1352 1350 1349 1348
1418 1417 1415 1414 1413 1411 1410 1408 1406 1404 1402 1400 1399 1397 1395 1393 1390 1388 1385 1383 1380 1378 1377 1375 1373 1371 1369 1368 1366 1365 1363 1362 1360 1359 1358 1356 1355 1353 1351 1350 1348 1347 1345
1413 1412 1411 1410 1408 1407 1406 1404 1402 1400 1398 1396 1394 1393 1391 1389 1387 1384 1382 1379 1377 1375 1373 1371 1370 1368 1366 1364 1363 1361 1360 1358 1357 1355 1354 1353 1351 1350 1348 1347 1346 1344 1343
1408 1407 1406 1405 1404 1402 1401 1400 1398 1396 1394 1392 1390 1389 1387 1384 1382 1380 1378 1376 1374 1372 1370 1368 1366 1364 1362 1360 1359 1357 1356 1355 1353 1352 1351 1349 1348 1347 1346 1344 1343 1342 1341
1403 1402 1401 1400 1399 1397 1396 1395 1393 1391 1390 1388 1386 1385 1383 1381 1378 1376 1374 1372 1370 1368 1366 1364 1362 1360 1358 1356 1355 1353 1352 1351 1350 1349 1347 1346 1345 1344 1343 1342 1341 1341 1340
1398 1397 1396 1395 1394 1392 1391 1390 1388 1387 1385 1383 1381 1380 1378 1377 1374 1372 1370 1368 1366 1364 1362 1361 1358 1357 1355 1353 1351 1350 1348 1347 1346 1345 1344 1343 1342 1342 1341 1340 1340 1339 1339
1393 1392 1390 1389 1388 1387 1386 1385 1383 1382 1380 1378 1377 1375 1373 1372 1370 1368 1366 1364 1362 1360 1359 1357 1355 1353 1351 1350 1348 1347 1345 1344 1343 1343 1342 1341 1340 1340 1339 1339 1338 1338 1338
1387 1386 1385 1384 1383 1382 1381 1379 1378 1377 1375 1373 1372 1370 1369 1367 1366 1364 1362 1360 1358 1357 1355 1353 1351 1350 1348 1346 1345 1343 1342 1341 1341 1340 1340 1339 1338 1338 1338 1337 1337 1337 1337
1382 1381 1380 1379 1378 1376 1375 1374 1373 1372 1370 1368 1367 1365 1364 1363 1361 1359 1358 1356 1354 1352 1351 1349 1348 1346 1345 1343 1342 1340 1339 1339 1338 1338 1338 1337 1337 1337 1336 1336 1336 1336 1336
1376 1375 1374 1373 1372 1371 1370 1369 1367 1366 1365 1363 1362 1361 1359 1358 1357 1355 1353 1352 1350 1349 1347 1346 1344 1343 1342 1340 1339 1338 1337 1336 1336 1336 1336 1336 1335 1335 1335 1335 1335 1335 1335